Time,TemperatureF,DewpointF,PressureIn,WindDirection,WindDirectionDegrees,WindSpeedMPH,WindSpeedGustMPH,Humidity,HourlyPrecipIn,Conditions,Clouds,dailyrainin,SoftwareType,DateUTC
2013-02-10 00:00:00,31.5,14.0,30.27,NW,313,0.0,1.0,48,0.00,,,0.00,Wunderground v.1.15,2013-02-10 05:00:00,
2013-02-10 00:10:00,31.3,14.8,30.27,NW,313,0.0,0.0,50,0.00,,,0.00,Wunderground v.1.15,2013-02-10 05:10:00,
2013-02-10 00:20:00,31.2,14.2,30.28,NW,313,0.0,0.0,49,0.00,,,0.00,Wunderground v.1.15,2013-02-10 05:20:00,
2013-02-10 00:30:00,31.5,14.5,30.27,NW,313,0.0,1.0,49,0.00,,,0.00,Wunderground v.1.15,2013-02-10 05:30:00,
2013-02-10 00:40:00,31.6,14.1,30.27,NW,313,0.0,1.0,48,0.00,,,0.00,Wunderground v.1.15,2013-02-10 05:40:00,
2013-02-10 00:50:00,31.5,14.0,30.27,NW,313,0.0,0.0,48,0.00,,,0.00,Wunderground v.1.15,2013-02-10 05:50:00,
2013-02-10 01:00:00,31.7,14.2,30.27,NW,313,0.0,0.0,48,0.00,,,0.00,Wunderground v.1.15,2013-02-10 06:00:00,
2013-02-10 01:10:00,31.6,14.6,30.26,NW,313,0.0,1.0,49,0.00,,,0.00,Wunderground v.1.15,2013-02-10 06:10:00,
2013-02-10 01:20:00,31.7,14.2,30.26,NW,313,0.0,0.0,48,0.00,,,0.00,Wunderground v.1.15,2013-02-10 06:20:00,
2013-02-10 01:30:00,31.9,13.9,30.26,NW,313,0.0,0.0,47,0.00,,,0.00,Wunderground v.1.15,2013-02-10 06:30:00,
2013-02-10 01:40:00,32.0,13.5,30.26,NW,313,0.0,0.0,46,0.00,,,0.00,Wunderground v.1.15,2013-02-10 06:40:00,
2013-02-10 01:50:00,32.2,13.7,30.26,NW,313,0.0,0.0,46,0.00,,,0.00,Wunderground v.1.15,2013-02-10 06:50:00,
2013-02-10 02:00:00,32.2,13.7,30.27,NW,313,0.0,0.0,46,0.00,,,0.00,Wunderground v.1.15,2013-02-10 07:00:00,
2013-02-10 02:10:00,32.1,14.1,30.27,NW,313,0.0,0.0,47,0.00,,,0.00,Wunderground v.1.15,2013-02-10 07:10:00,
2013-02-10 02:20:00,31.9,13.9,30.28,NW,313,0.0,0.0,47,0.00,,,0.00,Wunderground v.1.15,2013-02-10 07:20:00,
2013-02-10 02:30:00,31.8,13.3,30.28,NW,313,0.0,0.0,46,0.00,,,0.00,Wunderground v.1.15,2013-02-10 07:30:00,
2013-02-10 02:40:00,31.5,13.6,30.27,NW,313,0.0,0.0,47,0.00,,,0.00,Wunderground v.1.15,2013-02-10 07:40:00,
2013-02-10 02:50:00,31.1,13.2,30.28,NW,313,0.0,0.0,47,0.00,,,0.00,Wunderground v.1.15,2013-02-10 07:50:00,
2013-02-10 03:00:00,30.9,13.5,30.28,NW,313,0.0,0.0,48,0.00,,,0.00,Wunderground v.1.15,2013-02-10 08:00:00,
2013-02-10 03:10:00,30.8,12.9,30.28,NW,313,0.0,0.0,47,0.00,,,0.00,Wunderground v.1.15,2013-02-10 08:10:00,
2013-02-10 03:20:00,30.8,12.9,30.28,NW,313,0.0,0.0,47,0.00,,,0.00,Wunderground v.1.15,2013-02-10 08:20:00,
2013-02-10 03:30:00,30.7,12.8,30.28,NW,313,0.0,0.0,47,0.00,,,0.00,Wunderground v.1.15,2013-02-10 08:30:00,
2013-02-10 03:40:00,30.6,12.7,30.28,NW,313,0.0,0.0,47,0.00,,,0.00,Wunderground v.1.15,2013-02-10 08:40:00,
2013-02-10 03:50:00,30.4,12.5,30.28,NW,313,0.0,0.0,47,0.00,,,0.00,Wunderground v.1.15,2013-02-10 08:50:00,
2013-02-10 04:00:00,30.3,12.5,30.28,NW,313,0.0,0.0,47,0.00,,,0.00,Wunderground v.1.15,2013-02-10 09:00:00,
2013-02-10 04:10:00,30.4,13.0,30.28,NW,313,0.0,0.0,48,0.00,,,0.00,Wunderground v.1.15,2013-02-10 09:10:00,
2013-02-10 04:20:00,30.5,13.1,30.28,NW,313,0.0,0.0,48,0.00,,,0.00,Wunderground v.1.15,2013-02-10 09:20:00,
2013-02-10 04:30:00,30.4,13.0,30.28,NW,313,0.0,0.0,48,0.00,,,0.00,Wunderground v.1.15,2013-02-10 09:30:00,
2013-02-10 04:40:00,30.4,13.5,30.28,NW,313,0.0,0.0,49,0.00,,,0.00,Wunderground v.1.15,2013-02-10 09:40:00,
2013-02-10 04:50:00,30.3,13.4,30.28,NW,313,0.0,0.0,49,0.00,,,0.00,Wunderground v.1.15,2013-02-10 09:50:00,
2013-02-10 05:00:00,30.2,13.3,30.28,NW,313,0.0,0.0,49,0.00,,,0.00,Wunderground v.1.15,2013-02-10 10:00:00,
2013-02-10 05:10:00,30.2,13.3,30.29,NW,313,0.0,0.0,49,0.00,,,0.00,Wunderground v.1.15,2013-02-10 10:10:00,
2013-02-10 05:20:00,30.2,13.3,30.28,NW,313,0.0,0.0,49,0.00,,,0.00,Wunderground v.1.15,2013-02-10 10:20:00,
2013-02-10 05:30:00,30.3,12.9,30.29,NW,313,0.0,0.0,48,0.00,,,0.00,Wunderground v.1.15,2013-02-10 10:30:00,
2013-02-10 05:40:00,30.6,13.2,30.29,NW,313,0.0,0.0,48,0.00,,,0.00,Wunderground v.1.15,2013-02-10 10:40:00,
2013-02-10 05:50:00,30.8,12.9,30.29,NW,313,0.0,0.0,47,0.00,,,0.00,Wunderground v.1.15,2013-02-10 10:50:00,
2013-02-10 06:00:00,31.0,14.0,30.29,NW,313,0.0,0.0,49,0.00,,,0.00,Wunderground v.1.15,2013-02-10 11:00:00,
2013-02-10 06:10:00,31.1,14.1,30.29,NW,313,0.0,0.0,49,0.00,,,0.00,Wunderground v.1.15,2013-02-10 11:10:00,
2013-02-10 06:20:00,31.0,14.0,30.30,NW,313,0.0,0.0,49,0.00,,,0.00,Wunderground v.1.15,2013-02-10 11:20:00,
2013-02-10 06:30:00,31.1,14.1,30.30,NW,313,0.0,0.0,49,0.00,,,0.00,Wunderground v.1.15,2013-02-10 11:30:00,
2013-02-10 06:40:00,31.1,14.1,30.31,NW,313,0.0,0.0,49,0.00,,,0.00,Wunderground v.1.15,2013-02-10 11:40:00,
2013-02-10 06:50:00,31.1,14.1,30.31,NW,313,0.0,0.0,49,0.00,,,0.00,Wunderground v.1.15,2013-02-10 11:50:00,
2013-02-10 07:00:00,31.0,14.0,30.32,NW,313,0.0,0.0,49,0.00,,,0.00,Wunderground v.1.15,2013-02-10 12:00:00,
2013-02-10 07:10:00,30.9,14.9,30.32,NW,313,0.0,0.0,51,0.00,,,0.00,Wunderground v.1.15,2013-02-10 12:10:00,
2013-02-10 07:20:00,30.8,14.8,30.33,NW,313,0.0,0.0,51,0.00,,,0.00,Wunderground v.1.15,2013-02-10 12:20:00,
2013-02-10 07:30:00,30.7,14.7,30.33,NW,313,0.0,0.0,51,0.00,,,0.00,Wunderground v.1.15,2013-02-10 12:30:00,
2013-02-10 07:40:00,30.6,14.6,30.33,NW,313,0.0,0.0,51,0.00,,,0.00,Wunderground v.1.15,2013-02-10 12:40:00,
2013-02-10 07:50:00,30.4,14.9,30.34,NW,313,0.0,0.0,52,0.00,,,0.00,Wunderground v.1.15,2013-02-10 12:50:00,
2013-02-10 08:00:00,30.3,14.8,30.34,NW,313,0.0,0.0,52,0.00,,,0.00,Wunderground v.1.15,2013-02-10 13:00:00,
2013-02-10 08:10:00,30.3,15.6,30.34,NW,313,0.0,0.0,54,0.00,,,0.00,Wunderground v.1.15,2013-02-10 13:10:00,
2013-02-10 08:20:00,30.4,16.6,30.34,NW,313,0.0,0.0,56,0.00,,,0.00,Wunderground v.1.15,2013-02-10 13:20:00,
2013-02-10 08:30:00,30.5,16.2,30.34,NW,313,0.0,0.0,55,0.00,,,0.00,Wunderground v.1.15,2013-02-10 13:30:00,
2013-02-10 08:40:00,30.8,17.7,30.35,NW,313,0.0,0.0,58,0.00,,,0.00,Wunderground v.1.15,2013-02-10 13:40:00,
2013-02-10 08:50:00,30.8,16.5,30.34,NW,313,0.0,0.0,55,0.00,,,0.00,Wunderground v.1.15,2013-02-10 13:50:00,
2013-02-10 09:00:00,31.5,18.0,30.34,NW,313,0.0,0.0,57,0.00,,,0.00,Wunderground v.1.15,2013-02-10 14:00:00,
2013-02-10 09:10:00,32.1,18.2,30.33,NW,313,0.0,0.0,56,0.00,,,0.00,Wunderground v.1.15,2013-02-10 14:10:00,
2013-02-10 09:20:00,32.4,17.2,30.33,NW,313,0.0,0.0,53,0.00,,,0.00,Wunderground v.1.15,2013-02-10 14:20:00,
2013-02-10 09:30:00,32.6,17.3,30.33,NW,313,0.0,0.0,53,0.00,,,0.00,Wunderground v.1.15,2013-02-10 14:30:00,
2013-02-10 09:40:00,32.8,18.0,30.33,NW,313,0.0,0.0,54,0.00,,,0.00,Wunderground v.1.15,2013-02-10 14:40:00,
2013-02-10 09:50:00,33.2,18.3,30.33,NW,313,0.0,0.0,54,0.00,,,0.00,Wunderground v.1.15,2013-02-10 14:50:00,
2013-02-10 10:00:00,33.1,18.2,30.33,NW,313,0.0,0.0,54,0.00,,,0.00,Wunderground v.1.15,2013-02-10 15:00:00,
2013-02-10 10:10:00,33.2,19.2,30.33,SSW,194,0.0,1.0,56,0.00,,,0.00,Wunderground v.1.15,2013-02-10 15:10:00,
2013-02-10 10:20:00,33.8,19.3,30.32,SSW,193,1.0,1.0,55,0.00,,,0.00,Wunderground v.1.15,2013-02-10 15:20:00,
2013-02-10 10:30:00,34.4,19.9,30.32,SSW,210,1.0,1.0,55,0.00,,,0.00,Wunderground v.1.15,2013-02-10 15:30:00,
2013-02-10 10:40:00,34.7,19.7,30.32,SSE,150,1.0,1.0,54,0.00,,,0.00,Wunderground v.1.15,2013-02-10 15:40:00,
2013-02-10 10:50:00,35.5,20.9,30.32,SSW,206,2.0,4.0,55,0.00,,,0.00,Wunderground v.1.15,2013-02-10 15:50:00,
2013-02-10 11:00:00,35.9,20.4,30.32,South,179,2.0,2.0,53,0.00,,,0.00,Wunderground v.1.15,2013-02-10 16:00:00,
2013-02-10 11:10:00,37.0,22.3,30.32,SE,143,2.0,2.0,55,0.00,,,0.00,Wunderground v.1.15,2013-02-10 16:10:00,
2013-02-10 11:20:00,37.4,21.4,30.32,South,182,2.0,4.0,52,0.00,,,0.00,Wunderground v.1.15,2013-02-10 16:20:00,
2013-02-10 11:30:00,38.0,21.5,30.31,South,188,2.0,2.0,51,0.00,,,0.00,Wunderground v.1.15,2013-02-10 16:30:00,
2013-02-10 11:40:00,38.6,22.9,30.30,SSW,195,1.0,1.0,53,0.00,,,0.00,Wunderground v.1.15,2013-02-10 16:40:00,
2013-02-10 11:50:00,39.6,23.9,30.29,SSW,199,1.0,2.0,53,0.00,,,0.00,Wunderground v.1.15,2013-02-10 16:50:00,
2013-02-10 12:00:00,40.7,22.5,30.28,SSE,161,2.0,2.0,48,0.00,,,0.00,Wunderground v.1.15,2013-02-10 17:00:00,
2013-02-10 12:10:00,40.7,23.5,30.28,WNW,301,3.0,3.0,50,0.00,,,0.00,Wunderground v.1.15,2013-02-10 17:10:00,
2013-02-10 12:20:00,41.4,23.2,30.27,South,190,3.0,5.0,48,0.00,,,0.00,Wunderground v.1.15,2013-02-10 17:20:00,
2013-02-10 12:30:00,40.6,22.9,30.26,South,188,2.0,2.0,49,0.00,,,0.00,Wunderground v.1.15,2013-02-10 17:30:00,
2013-02-10 12:40:00,40.9,22.2,30.26,SSE,168,1.0,2.0,47,0.00,,,0.00,Wunderground v.1.15,2013-02-10 17:40:00,
2013-02-10 12:50:00,41.1,23.4,30.24,SSE,159,2.0,6.0,49,0.00,,,0.00,Wunderground v.1.15,2013-02-10 17:50:00,
2013-02-10 13:00:00,42.1,24.3,30.23,South,171,2.0,6.0,49,0.00,,,0.00,Wunderground v.1.15,2013-02-10 18:00:00,
2013-02-10 13:10:00,44.2,24.7,30.23,South,171,2.0,2.0,46,0.00,,,0.00,Wunderground v.1.15,2013-02-10 18:10:00,
2013-02-10 13:20:00,44.0,24.5,30.22,SE,136,3.0,3.0,46,0.00,,,0.00,Wunderground v.1.15,2013-02-10 18:20:00,
2013-02-10 13:30:00,44.2,24.7,30.22,South,176,2.0,2.0,46,0.00,,,0.00,Wunderground v.1.15,2013-02-10 18:30:00,
2013-02-10 13:40:00,45.6,25.5,30.21,South,176,2.0,4.0,45,0.00,,,0.00,Wunderground v.1.15,2013-02-10 18:40:00,
2013-02-10 13:50:00,46.1,25.9,30.21,ESE,113,2.0,2.0,45,0.00,,,0.00,Wunderground v.1.15,2013-02-10 18:50:00,
2013-02-10 14:00:00,46.9,25.5,30.20,SE,132,2.0,2.0,43,0.00,,,0.00,Wunderground v.1.15,2013-02-10 19:00:00,
2013-02-10 14:10:00,46.4,25.1,30.20,South,173,4.0,5.0,43,0.00,,,0.00,Wunderground v.1.15,2013-02-10 19:10:00,
2013-02-10 14:20:00,47.1,25.7,30.19,SSE,159,3.0,8.0,43,0.00,,,0.00,Wunderground v.1.15,2013-02-10 19:20:00,
2013-02-10 14:30:00,47.3,25.9,30.18,SSE,165,4.0,4.0,43,0.00,,,0.00,Wunderground v.1.15,2013-02-10 19:30:00,
2013-02-10 14:40:00,48.8,26.7,30.16,SSW,195,4.0,4.0,42,0.00,,,0.00,Wunderground v.1.15,2013-02-10 19:40:00,
2013-02-10 14:50:00,48.3,26.8,30.16,SSW,206,4.0,4.0,43,0.00,,,0.00,Wunderground v.1.15,2013-02-10 19:50:00,
2013-02-10 15:00:00,48.2,26.2,30.16,ESE,103,3.0,3.0,42,0.00,,,0.00,Wunderground v.1.15,2013-02-10 20:00:00,
2013-02-10 15:10:00,48.2,26.2,30.17,SSE,161,3.0,5.0,42,0.00,,,0.00,Wunderground v.1.15,2013-02-10 20:10:00,
2013-02-10 15:20:00,48.1,26.1,30.17,South,191,4.0,4.0,42,0.00,,,0.00,Wunderground v.1.15,2013-02-10 20:20:00,
2013-02-10 15:30:00,47.9,25.9,30.17,South,184,4.0,5.0,42,0.00,,,0.00,Wunderground v.1.15,2013-02-10 20:30:00,
2013-02-10 15:40:00,47.9,25.9,30.17,SSE,165,4.0,4.0,42,0.00,,,0.00,Wunderground v.1.15,2013-02-10 20:40:00,
2013-02-10 15:50:00,47.7,25.7,30.16,ESE,122,4.0,6.0,42,0.00,,,0.00,Wunderground v.1.15,2013-02-10 20:50:00,
2013-02-10 16:00:00,47.4,25.4,30.16,SSE,149,4.0,6.0,42,0.00,,,0.00,Wunderground v.1.15,2013-02-10 21:00:00,
2013-02-10 16:10:00,46.7,24.8,30.16,SSE,159,3.0,4.0,42,0.00,,,0.00,Wunderground v.1.15,2013-02-10 21:10:00,
2013-02-10 16:20:00,45.9,24.6,30.15,SSE,156,4.0,4.0,43,0.00,,,0.00,Wunderground v.1.15,2013-02-10 21:20:00,
2013-02-10 16:30:00,45.6,24.4,30.16,SSE,159,3.0,3.0,43,0.00,,,0.00,Wunderground v.1.15,2013-02-10 21:30:00,
2013-02-10 16:40:00,45.4,24.2,30.15,South,183,3.0,3.0,43,0.00,,,0.00,Wunderground v.1.15,2013-02-10 21:40:00,
2013-02-10 16:50:00,45.2,24.6,30.15,SSE,153,2.0,4.0,44,0.00,,,0.00,Wunderground v.1.15,2013-02-10 21:50:00,
2013-02-10 17:00:00,45.0,23.3,30.15,SSE,163,4.0,8.0,42,0.00,,,0.00,Wunderground v.1.15,2013-02-10 22:00:00,
2013-02-10 17:10:00,44.9,23.7,30.15,South,190,4.0,4.0,43,0.00,,,0.00,Wunderground v.1.15,2013-02-10 22:10:00,
2013-02-10 17:20:00,44.4,23.3,30.15,South,190,4.0,5.0,43,0.00,,,0.00,Wunderground v.1.15,2013-02-10 22:20:00,
2013-02-10 17:30:00,44.0,23.5,30.15,South,169,2.0,4.0,44,0.00,,,0.00,Wunderground v.1.15,2013-02-10 22:30:00,
2013-02-10 17:40:00,43.7,22.6,30.15,SSE,148,3.0,3.0,43,0.00,,,0.00,Wunderground v.1.15,2013-02-10 22:40:00,
2013-02-10 17:50:00,43.3,22.8,30.15,South,175,2.0,2.0,44,0.00,,,0.00,Wunderground v.1.15,2013-02-10 22:50:00,
2013-02-10 18:00:00,42.9,23.0,30.15,SSE,163,2.0,2.0,45,0.00,,,0.00,Wunderground v.1.15,2013-02-10 23:00:00,
2013-02-10 18:10:00,42.7,22.8,30.16,SSW,200,2.0,2.0,45,0.00,,,0.00,Wunderground v.1.15,2013-02-10 23:10:00,
2013-02-10 18:20:00,42.5,23.2,30.17,SE,145,3.0,6.0,46,0.00,,,0.00,Wunderground v.1.15,2013-02-10 23:20:00,
2013-02-10 18:30:00,42.4,23.1,30.17,South,182,3.0,3.0,46,0.00,,,0.00,Wunderground v.1.15,2013-02-10 23:30:00,
2013-02-10 18:40:00,42.4,23.1,30.17,South,188,1.0,1.0,46,0.00,,,0.00,Wunderground v.1.15,2013-02-10 23:40:00,
2013-02-10 18:50:00,42.2,22.9,30.17,SSE,168,1.0,4.0,46,0.00,,,0.00,Wunderground v.1.15,2013-02-10 23:50:00,
2013-02-10 19:00:00,42.2,22.9,30.17,SSW,202,2.0,2.0,46,0.00,,,0.00,Wunderground v.1.15,2013-02-11 00:00:00,
2013-02-10 19:10:00,42.2,22.9,30.18,SSE,164,1.0,1.0,46,0.00,,,0.00,Wunderground v.1.15,2013-02-11 00:10:00,
2013-02-10 19:20:00,42.1,22.8,30.18,South,190,1.0,1.0,46,0.00,,,0.00,Wunderground v.1.15,2013-02-11 00:20:00,
2013-02-10 19:30:00,42.0,23.2,30.18,South,186,0.0,2.0,47,0.00,,,0.00,Wunderground v.1.15,2013-02-11 00:30:00,
2013-02-10 19:40:00,41.9,23.1,30.18,SSW,208,1.0,2.0,47,0.00,,,0.00,Wunderground v.1.15,2013-02-11 00:40:00,
2013-02-10 19:50:00,41.8,23.0,30.18,SW,215,1.0,4.0,47,0.00,,,0.00,Wunderground v.1.15,2013-02-11 00:50:00,
2013-02-10 20:00:00,41.7,22.9,30.18,South,180,1.0,1.0,47,0.00,,,0.00,Wunderground v.1.15,2013-02-11 01:00:00,
2013-02-10 20:10:00,41.6,22.8,30.18,South,180,1.0,1.0,47,0.00,,,0.00,Wunderground v.1.15,2013-02-11 01:10:00,
2013-02-10 20:20:00,41.5,23.2,30.18,SSW,211,1.0,1.0,48,0.00,,,0.00,Wunderground v.1.15,2013-02-11 01:20:00,
2013-02-10 20:30:00,41.4,24.6,30.17,WNW,286,1.0,5.0,51,0.00,,,0.00,Wunderground v.1.15,2013-02-11 01:30:00,
2013-02-10 20:40:00,40.5,27.7,30.17,NW,305,2.0,2.0,60,0.00,,,0.00,Wunderground v.1.15,2013-02-11 01:40:00,
2013-02-10 20:50:00,39.3,28.9,30.17,West,280,3.0,3.0,66,0.00,,,0.00,Wunderground v.1.15,2013-02-11 01:50:00,
2013-02-10 21:00:00,38.3,29.7,30.15,SW,229,2.0,2.0,71,0.00,,,0.00,Wunderground v.1.15,2013-02-11 02:00:00,
2013-02-10 21:10:00,37.5,30.3,30.15,SW,229,0.0,0.0,75,0.00,,,0.00,Wunderground v.1.15,2013-02-11 02:10:00,
2013-02-10 21:20:00,36.9,30.4,30.15,SW,234,0.0,0.0,77,0.00,,,0.01,Wunderground v.1.15,2013-02-11 02:20:00,
2013-02-10 21:30:00,36.3,30.4,30.15,South,183,0.0,0.0,79,0.06,,,0.02,Wunderground v.1.15,2013-02-11 02:30:00,
2013-02-10 21:40:00,36.1,31.1,30.13,South,183,0.0,0.0,82,0.06,,,0.03,Wunderground v.1.15,2013-02-11 02:40:00,
2013-02-10 21:50:00,35.7,31.6,30.11,South,183,0.0,0.0,85,0.05,,,0.04,Wunderground v.1.15,2013-02-11 02:50:00,
2013-02-10 22:00:00,35.2,31.4,30.13,South,183,0.0,0.0,86,0.00,,,0.04,Wunderground v.1.15,2013-02-11 03:00:00,
2013-02-10 22:10:00,34.9,31.7,30.12,South,183,0.0,0.0,88,0.00,,,0.04,Wunderground v.1.15,2013-02-11 03:10:00,
2013-02-10 22:20:00,34.7,31.8,30.12,South,183,0.0,0.0,89,0.00,,,0.04,Wunderground v.1.15,2013-02-11 03:20:00,
2013-02-10 22:30:00,34.6,32.0,30.12,South,183,0.0,0.0,90,0.00,,,0.04,Wunderground v.1.15,2013-02-11 03:30:00,
2013-02-10 22:40:00,34.4,31.8,30.11,South,183,0.0,0.0,90,0.00,,,0.04,Wunderground v.1.15,2013-02-11 03:40:00,
2013-02-10 22:50:00,34.4,31.8,30.11,South,183,0.0,0.0,90,0.00,,,0.04,Wunderground v.1.15,2013-02-11 03:50:00,
2013-02-10 23:00:00,34.4,32.0,30.10,South,183,0.0,0.0,91,0.00,,,0.04,Wunderground v.1.15,2013-02-11 04:00:00,
2013-02-10 23:10:00,34.4,32.0,30.10,South,183,0.0,0.0,91,0.00,,,0.04,Wunderground v.1.15,2013-02-11 04:10:00,
2013-02-10 23:20:00,34.4,32.0,30.10,South,183,0.0,0.0,91,0.00,,,0.04,Wunderground v.1.15,2013-02-11 04:20:00,
2013-02-10 23:30:00,34.4,32.3,30.09,South,183,0.0,0.0,92,0.00,,,0.05,Wunderground v.1.15,2013-02-11 04:30:00,
2013-02-10 23:40:00,34.4,32.3,30.08,South,183,0.0,0.0,92,0.00,,,0.05,Wunderground v.1.15,2013-02-11 04:40:00,
2013-02-10 23:50:00,34.4,32.3,30.08,South,183,0.0,0.0,92,0.00,,,0.05,Wunderground v.1.15,2013-02-11 04:50:00,